Weather in Campia Turzii

Romania     46°32′49″N   23°53′11″E
temp.,
°C
wind,
m/s
gust,
m/s
humid.,
%
clouds,
%
prec.,
mm/h
press.,
hPa
HPBL,
m
3 august, tue
tue300:00+17nnw226216 0.0 101413
03:00+16nnw22701 0.0 101616
06:00+15wnw11760 0.0 101611
09:00+21sw11560 0.0 1017330
12:00+26sw12420 0.0 10161661
15:00+28nw243354 0.0 10152643
18:00+27nnw3235100 0.0 10141457
21:00+21n22530 0.0 101414
4 august, wed
wed400:00+18nnw11570 0.0 101511
03:00+17ene006341 0.0 101511
06:00+16se1167100 0.0 101511
09:00+21se1154100 0.0 1016250
12:00+23sse125020 0.0 1015423
15:00+30s2329100 0.0 10131520
18:00+31ssw452899 0.0 10112552
21:00+23ssw225175 0.0 101211
5 august, thu
thu500:00+21sse1162100 0.0 101211
03:00+21se116287 0.0 101111
06:00+18nne117412 0.0 101011
09:00+23ese235512 0.0 1009316
12:00+32s46285 0.0 1007991
15:00+35sw482257 0.0 10032566
18:00+24wsw101949100 0.6 1006908
21:00+17sse468799 1.1 1007126
6 august, fri
fri600:00+17sw229067 0.4 100723
03:00+15se1192100 0.4 100611
06:00+14se119350 0.0 100614
09:00+19n237975 0.0 1007384
12:00+24wsw1252100 0.1 10071415
15:00+27n5438100 0.1 10062135
18:00+25nnw4539100 0.0 1006559
21:00+22nw474991 0.0 1007279
7 august, sat
sat700:00+16nw22772 0.0 101011
03:00+15w118461 0.0 101011
06:00+14s22820 0.0 101110
09:00+20nw01560 0.0 1013313
12:00+26nw44350 0.0 10131734
15:00+28nw34270 0.0 10122107
18:00+29nw33290 0.0 10121984
21:00+22nne22425 0.0 101311